Voltar ao catálogo

PATHFINDER 1

AtivoComunicaçõesSSO
NORAD 41787·PAYLOAD·🇺🇸 United States

Lançado Sep 26, 2016 de Satish Dhawan Space Centre

Loading…

Próximas Passagens (próximas 24 horas)

TLE

AtualizadoSource: Space-Track

Época: Sep 14, 2026, 10:40 UTC

1 41787U 16059E   26257.44504339  .00000430  00000-0  83285-4 0  9999
2 41787  97.8230 252.7228 0026956 282.5171  77.3019 14.67755455532804

Acompanhe PATHFINDER 1 em tempo real com AllMySat

Download on the App Store